[[{"header":{"parameterUnit":"m.s-1","parameterCategory":2,"la1":30.2991,"la2":30.254,"lo1":-89.0895,"lo2":-89.0444,"dy":0.0017,"dx":0.0017,"nx":28,"ny":28,"refTime":"2023-09-26T09:00:00:Z","depth":"0","parameterNumber":2,"parameterNumberName":"U-component_of_CURRENTS"},"data":[0,0,0,0,0,0,0,0,0,0,0,0,0,0,0,0,0,0,0,0,0,0,0,0,0,0,0,0,0,0,0,0,0,0,0,0,0,0,0,0,0,0,0,0,0,0,0,0,0,0,0,0,0,0,0,0,0,0,-0.2925,-0.2926,0,-0.299,-0.299,-0.2991,-0.2946,-0.2944,-0.2942,-0.294,-0.2853,-0.2853,-0.2852,0,0,0,0,0,0,0,0,0,0,0,0,0,-0.2739,-0.2743,-0.2925,-0.2926,-0.2927,-0.299,-0.299,-0.2991,-0.2946,-0.2944,-0.2942,-0.2939,-0.2854,-0.2853,-0.2852,0,0,0,0,0,0,0,0,0,0,0,0,0,-0.2813,-0.2744,-0.2925,-0.2913,-0.2912,-0.2989,-0.299,-0.2991,-0.2947,-0.2944,-0.2941,-0.2938,-0.2854,-0.2853,-0.2852,-0.2905,0,0,-0.285,-0.2849,0,0,0,0,0,0,0,0,-0.2809,-0.282,-0.2914,-0.2914,-0.2914,-0.2958,-0.2893,-0.2955,-0.2948,-0.2933,-0.294,-0.2937,-0.2877,-0.2874,-0.2893,-0.2901,-0.2897,-0.285,-0.2849,-0.2849,-0.2849,0,0,0,0,0,0,0,-0.2804,-0.2816,-0.295,-0.2915,-0.2915,-0.2896,-0.2903,-0.2905,-0.2917,-0.2934,-0.2931,-0.2941,-0.2875,-0.2895,-0.2891,-0.2896,-0.285,-0.2849,-0.2849,-0.2848,-0.2912,-0.2914,0,0,0,0,0,0,-0.2803,-0.2813,-0.2948,-0.2952,-0.2854,-0.2902,-0.291,-0.2946,-0.292,-0.2915,-0.2943,-0.2938,-0.2897,-0.2892,-0.2887,-0.2902,-0.2849,-0.2848,-0.2848,-0.291,-0.2912,-0.2915,0,0,0,0,0,0,-0.28,-0.2816,-0.2945,-0.2882,-0.2897,-0.2909,-0.2949,-0.2948,-0.2957,-0.2929,-0.292,-0.295,-0.2895,-0.2888,-0.2891,-0.2899,-0.2848,-0.2847,-0.2907,-0.2911,-0.2914,-0.296,0,0,0,0,0,0,-0.2794,-0.2815,-0.2844,-0.2883,-0.2901,-0.2992,-0.2952,-0.2952,-0.2968,-0.2962,-0.2932,-0.2922,-0.2892,-0.2893,-0.289,-0.2897,-0.2847,-0.2905,-0.2909,-0.2913,-0.2956,-0.2965,-0.2972,0,0,0,0,0,-0.2788,-0.2848,-0.2845,-0.2861,-0.294,-0.2994,-0.3002,-0.2997,-0.2971,-0.2991,-0.2968,-0.2922,-0.2916,-0.2894,-0.2891,-0.2897,-0.2903,-0.2908,-0.2912,-0.2952,-0.2963,-0.2972,0,0,0,0,0,0,-0.2799,-0.285,-0.2848,-0.2924,-0.2953,-0.2986,-0.3013,-0.3006,-0.301,-0.2995,-0.2953,-0.2944,-0.2954,-0.2933,-0.291,-0.2933,-0.2901,-0.2906,-0.2933,-0.2943,-0.2951,-0.2911,-0.2846,0,0,0,0,0,-0.2814,-0.2856,-0.2901,-0.2956,-0.2977,-0.2994,-0.3015,-0.3012,-0.3021,-0.302,-0.2997,-0.298,-0.298,-0.2963,-0.2967,-0.2978,-0.294,-0.2983,-0.2991,-0.2997,-0.2967,-0.2925,-0.2924,-0.2931,-0.2931,-0.2931,0,0,-0.2831,-0.2865,-0.2889,-0.2958,-0.298,-0.3006,-0.2999,-0.3039,-0.3038,-0.301,-0.3005,-0.3015,-0.2996,-0.301,-0.3011,-0.2982,-0.2989,-0.3004,-0.3009,-0.2973,-0.2929,-0.2928,-0.2927,-0.2934,-0.2933,-0.2933,0,0,-0.2851,-0.2921,-0.2936,-0.2971,-0.3008,-0.3031,-0.304,-0.3074,-0.3068,-0.3085,-0.3065,-0.3079,-0.3072,-0.3063,-0.3054,-0.3114,-0.3046,-0.3118,-0.3103,-0.3065,-0.3062,-0.3059,-0.3055,-0.3051,-0.3105,-0.3105,-0.3105,0,-0.2856,-0.2892,-0.2951,-0.2969,-0.299,-0.3036,-0.3044,-0.3069,-0.309,-0.3083,-0.3082,-0.3092,-0.3093,-0.3086,-0.3109,-0.3126,-0.3094,-0.3063,-0.307,-0.3066,-0.3062,-0.3057,-0.3052,-0.3108,-0.3107,-0.3107,-0.3107,0,-0.2861,-0.2898,-0.2923,-0.2951,-0.2991,-0.3025,-0.3062,-0.309,-0.3097,-0.3101,-0.3112,-0.313,-0.3122,-0.3145,-0.3139,-0.3123,-0.311,-0.3095,-0.3032,-0.3063,-0.3059,-0.3053,-0.3112,-0.3111,-0.311,-0.3109,0,0,-0.281,-0.2903,-0.2897,-0.2915,-0.2983,-0.3019,-0.3044,-0.307,-0.3076,-0.31,-0.3085,-0.3121,-0.313,-0.3123,-0.3133,-0.3101,-0.3089,-0.3077,-0.3073,-0.305,-0.3009,-0.2789,-0.2762,-0.3053,-0.3052,-0.305,-0.3032,0,-0.2769,-0.2805,-0.2853,-0.2885,-0.2914,-0.2981,-0.3006,-0.3042,-0.3068,-0.3081,-0.3093,-0.3105,-0.312,-0.313,-0.3101,-0.3094,-0.3065,-0.3095,-0.3,-0.2998,-0.2778,-0.2744,-0.2601,-0.2551,-0.3026,-0.3025,-0.3024,0,-0.2698,-0.275,-0.2771,-0.2862,-0.2879,-0.2905,-0.2963,-0.2993,-0.3032,-0.3053,-0.306,-0.3075,-0.307,-0.3074,-0.3031,-0.304,-0.3019,-0.3005,-0.3004,-0.2759,-0.2761,-0.259,-0.2521,-0.2526,-0.3014,-0.3015,-0.3015,0,-0.2585,-0.2671,-0.2691,-0.2723,-0.2839,-0.2852,-0.2907,-0.2965,-0.2987,-0.3029,-0.3042,-0.3041,-0.3041,-0.3002,-0.2968,-0.3001,-0.2885,-0.2942,-0.2728,-0.2717,-0.2551,-0.2523,-0.2439,-0.2881,-0.2881,-0.2881,-0.2881,0,-0.2487,-0.249,-0.2652,-0.266,-0.271,-0.2801,-0.2829,-0.289,-0.2946,-0.2942,-0.3013,-0.2985,-0.301,-0.295,-0.2934,-0.2768,-0.2858,-0.2688,-0.2664,-0.2569,-0.2544,-0.2502,-0.2551,-0.2881,-0.2881,-0.2881,-0.2881,0,-0.229,-0.2399,-0.2448,-0.2598,-0.2647,-0.2674,-0.2791,-0.281,-0.2889,-0.288,-0.2889,-0.2931,-0.284,-0.2822,-0.276,-0.2696,-0.2525,-0.2518,-0.2407,-0.2364,-0.2144,-0.2202,-0.204,-0.199,-0.23,-0.2294,-0.2288,0,-0.2175,-0.2187,-0.2379,-0.2424,-0.2476,-0.2559,-0.2608,-0.2751,-0.2771,-0.2808,-0.2779,-0.2724,-0.2595,-0.2429,-0.2324,-0.2206,-0.228,-0.2025,-0.2043,-0.2051,-0.2105,-0.217,-0.215,-0.1907,-0.1899,-0.1892,-0.1887,0,-0.1958,-0.2042,-0.2094,-0.2213,-0.2291,-0.2375,-0.2455,-0.2479,-0.2596,-0.2566,-0.2441,-0.2329,-0.2191,-0.1964,-0.1842,-0.1781,-0.1948,-0.1882,-0.1927,-0.1771,-0.1804,-0.1771,-0.2053,-0.183,-0.1836,-0.184,-0.1843,-0.1845,-0.1781,-0.1785,-0.1885,-0.1964,-0.2049,-0.2095,-0.2089,-0.215,-0.2113,-0.1986,-0.204,-0.1766,-0.1706,-0.1477,-0.143,-0.1339,-0.1478,-0.1335,-0.1412,-0.1485,-0.1372,-0.1496,-0.12,-0.1202,-0.1204,-0.1206,-0.1207,0,-0.1573,-0.1591,-0.1633,-0.1716,-0.1692,-0.1837,-0.1901,-0.1836,-0.1685,-0.1566,-0.1377,-0.1134,-0.1006,-0.1026,-0.0991,-0.0928,-0.0997,-0.0945,-0.1084,-0.1094,-0.1224,-0.1137,-0.0766,-0.0766,-0.0766,-0.0766,-0.0766,-0.0766,-0.1467,-0.1419,-0.1446,-0.1333,-0.1367,-0.1291,-0.1285,-0.1215,-0.1117,-0.0795,-0.0577,-0.0481,-0.0632,-0.0817,-0.0838,-0.0807,-0.0886,-0.0785,-0.0895,-0.1083,-0.113,-0.1175,-0.1104,-0.0732,-0.0732,-0.0722,-0.0722,-0.0722]},{"header":{"parameterUnit":"m.s-1","parameterCategory":2,"la1":30.2991,"la2":30.254,"lo1":-89.0895,"lo2":-89.0444,"dy":0.0017,"dx":0.0017,"nx":28,"ny":28,"refTime":"2023-09-26T09:00:00:Z","depth":"0","parameterNumber":3,"parameterNumberName":"V-component_of_CURRENTS"},"data":[0,0,0,0,0,0,0,0,0,0,0,0,0,0,0,0,0,0,0,0,0,0,0,0,0,0,0,0,0,0,0,0,0,0,0,0,0,0,0,0,0,0,0,0,0,0,0,0,0,0,0,0,0,0,0,0,0,0,-0.0375,-0.0373,0,-0.0199,-0.0197,-0.0195,-0.01,-0.01,-0.01,-0.01,0.0145,0.0151,0.0158,0,0,0,0,0,0,0,0,0,0,0,0,0,-0.0529,-0.0528,-0.0375,-0.0373,-0.0371,-0.0199,-0.0197,-0.0194,-0.01,-0.01,-0.01,-0.01,0.0143,0.0151,0.0158,0,0,0,0,0,0,0,0,0,0,0,0,0,-0.0418,-0.0527,-0.0376,-0.0305,-0.0297,-0.02,-0.0197,-0.0194,-0.0101,-0.01,-0.01,-0.01,0.014,0.015,0.0159,0.0217,0,0,0.0189,0.0193,0,0,0,0,0,0,0,0,-0.0424,-0.0412,-0.0317,-0.0309,-0.03,-0.0173,-0.0161,-0.0053,-0.0101,-0.0174,-0.01,-0.01,0.0044,0.0062,0.0096,0.0229,0.0239,0.019,0.0196,0.02,0.0203,0,0,0,0,0,0,0,-0.0432,-0.0419,-0.0304,-0.0315,-0.0305,-0.0247,-0.0232,-0.014,-0.0065,-0.0167,-0.016,-0.0143,0.005,0.0086,0.0102,0.0243,0.019,0.0198,0.0204,0.0208,0.0438,0.0439,0,0,0,0,0,0,-0.0462,-0.0426,-0.031,-0.0299,-0.0365,-0.0245,-0.0228,-0.0213,-0.0067,-0.0046,-0.0143,-0.0139,0.0069,0.0091,0.0111,0.0167,0.02,0.0209,0.0215,0.0438,0.0439,0.0439,0,0,0,0,0,0,-0.0466,-0.0453,-0.0317,-0.036,-0.0338,-0.0243,-0.0226,-0.0209,-0.0171,-0.005,-0.0027,-0.0123,0.007,0.0098,0.0186,0.0178,0.0213,0.0222,0.0438,0.0438,0.0439,0.0292,0,0,0,0,0,0,-0.0471,-0.0456,-0.0456,-0.0362,-0.0337,-0.0267,-0.0226,-0.0206,-0.0161,-0.0154,-0.0025,-0.0002,0.0073,0.017,0.0195,0.0192,0.023,0.0437,0.0438,0.0439,0.0296,0.0287,0.0279,0,0,0,0,0,-0.0477,-0.0478,-0.0457,-0.0442,-0.034,-0.0267,-0.0249,-0.018,-0.0161,-0.0145,-0.0064,-0.0006,0.0192,0.0179,0.0208,0.0207,0.0437,0.0438,0.0438,0.03,0.0289,0.028,0,0,0,0,0,0,-0.0544,-0.0466,-0.0441,-0.0418,-0.0353,-0.0252,-0.0234,-0.0186,-0.0108,-0.0105,0.0004,0.0033,0.0108,0.0182,0.0165,0.0277,0.0322,0.0329,0.0207,0.0198,0.019,0.0134,0.0238,0,0,0,0,0,-0.0561,-0.0542,-0.0457,-0.044,-0.0415,-0.0327,-0.029,-0.0243,-0.0163,-0.0129,-0.0039,0.0054,0.0135,0.0183,0.0272,0.0336,0.0361,0.0355,0.0346,0.0338,0.0314,0.0304,0.0291,0.0441,0.0441,0.0441,0,0,-0.0584,-0.0538,-0.0528,-0.0453,-0.0402,-0.0369,-0.0305,-0.0257,-0.0228,-0.0113,-0.005,0.0034,0.0148,0.0213,0.0253,0.0272,0.0318,0.0339,0.0331,0.0311,0.0303,0.0288,0.0274,0.0441,0.0441,0.0441,0,0,-0.0617,-0.0581,-0.0576,-0.053,-0.0459,-0.0403,-0.0396,-0.0299,-0.0258,-0.0183,-0.0104,-0.004,0.0107,0.0164,0.0216,0.0218,0.0275,0.0261,0.0171,0.0161,0.0147,0.0135,0.0172,0.0164,0.0252,0.0252,0.0252,0,-0.065,-0.0631,-0.0563,-0.0544,-0.0525,-0.0428,-0.0426,-0.036,-0.0247,-0.0234,-0.0181,-0.0029,0.0075,0.012,0.0127,0.0194,0.021,0.0193,0.0143,0.0131,0.0121,0.0163,0.0156,0.0245,0.0246,0.0247,0.0247,0,-0.0669,-0.0662,-0.0658,-0.061,-0.0577,-0.0558,-0.0475,-0.0436,-0.0377,-0.0322,-0.0262,-0.0137,-0.0059,-0.0008,0.007,0.0056,0.01,0.0128,0.015,0.0096,0.0146,0.0141,0.0235,0.0238,0.024,0.0241,0,0,-0.072,-0.0685,-0.0681,-0.0694,-0.062,-0.0599,-0.0566,-0.0522,-0.0524,-0.0419,-0.0422,-0.0284,-0.0239,-0.0177,-0.0083,-0.0079,-0.0106,-0.0014,-0.0011,-0.0009,-0.0108,0.0014,0.0022,-0.0105,-0.0108,-0.0109,-0.0037,0,-0.0759,-0.0777,-0.0735,-0.0756,-0.0767,-0.0698,-0.0682,-0.0633,-0.0575,-0.0544,-0.0451,-0.0398,-0.0294,-0.0263,-0.0247,-0.0133,-0.0129,-0.0126,-0.0027,-0.0023,0.0063,0.0016,0.0061,0.0136,-0.0041,-0.0042,-0.0042,0,-0.0777,-0.0801,-0.084,-0.0863,-0.0862,-0.0853,-0.085,-0.0817,-0.0755,-0.0716,-0.0673,-0.0584,-0.0525,-0.044,-0.0335,-0.0343,-0.0246,-0.0168,-0.0163,-0.001,0.0089,0.0162,0.0135,0.0245,-0.0049,-0.0048,-0.0048,0,-0.0845,-0.0868,-0.0919,-0.0919,-0.0919,-0.0934,-0.0923,-0.0879,-0.0864,-0.0827,-0.0811,-0.0748,-0.0664,-0.0601,-0.0375,-0.0386,-0.0252,-0.0245,-0.0051,-0.0038,0.0042,0.0064,0.0101,-0.0216,-0.0216,-0.0216,-0.0217,0,-0.0887,-0.0921,-0.0961,-0.0985,-0.106,-0.1022,-0.1067,-0.1042,-0.1004,-0.0966,-0.0905,-0.0829,-0.0704,-0.0572,-0.0441,-0.0225,-0.03,-0.008,-0.0029,0.0002,0.0019,0.0156,0.0195,-0.0214,-0.0214,-0.0215,-0.0215,0,-0.0906,-0.0933,-0.1005,-0.1062,-0.1086,-0.1128,-0.1143,-0.1149,-0.1116,-0.106,-0.1046,-0.0893,-0.0708,-0.0553,-0.0375,-0.0254,-0.0016,-0.0005,0.006,0.0117,0.0357,0.0387,0.0481,0.0561,0.0153,0.0157,0.0159,0,-0.0903,-0.0946,-0.1065,-0.1118,-0.1138,-0.1198,-0.1217,-0.1205,-0.1176,-0.1045,-0.0993,-0.0818,-0.0613,-0.0322,-0.0115,0.009,0.0165,0.0251,0.0227,0.0367,0.0436,0.0444,0.0503,0.0287,0.0291,0.0294,0.0296,0,-0.0909,-0.0957,-0.1021,-0.1146,-0.1201,-0.1257,-0.1263,-0.1248,-0.1159,-0.1053,-0.0824,-0.0663,-0.0379,-0.0085,0.0166,0.0281,0.0328,0.0318,0.0415,0.05,0.0554,0.0659,0.028,0.0322,0.0319,0.0317,0.0316,0.0315,-0.0903,-0.0962,-0.1057,-0.1156,-0.1218,-0.1229,-0.1214,-0.1118,-0.0989,-0.0698,-0.061,-0.0246,-0.0057,0.0313,0.044,0.0663,0.0591,0.0702,0.0717,0.0705,0.08,0.0514,0.0648,0.0647,0.0647,0.0646,0.0646,0,-0.0905,-0.0964,-0.1055,-0.1162,-0.1189,-0.1232,-0.1173,-0.1044,-0.077,-0.0466,-0.0168,0.0248,0.052,0.0684,0.0919,0.104,0.1031,0.1079,0.1059,0.1093,0.0798,0.0824,0.1061,0.1061,0.1061,0.106,0.106,0.106,-0.0914,-0.0991,-0.104,-0.109,-0.1137,-0.1107,-0.1036,-0.0755,-0.0494,0.0071,0.0445,0.0665,0.0814,0.1094,0.1319,0.1339,0.1428,0.1412,0.1469,0.1231,0.1195,0.116,0.1193,0.1504,0.1504,0.1753,0.1755,0.1757]}],[{"header":{"parameterUnit":"m.s-1","parameterCategory":2,"la1":30.2991,"la2":30.254,"lo1":-89.0895,"lo2":-89.0444,"dy":0.0017,"dx":0.0017,"nx":28,"ny":28,"refTime":"2023-09-26T09:00:00:Z","depth":"2","parameterNumber":2,"parameterNumberName":"U-component_of_CURRENTS"},"data":[0,0,0,0,0,0,0,0,0,0,0,0,0,0,0,0,0,0,0,0,0,0,0,0,0,0,0,0,0,0,0,0,0,0,0,0,0,0,0,0,0,0,0,0,0,0,0,0,0,0,0,0,0,0,0,0,0,0,-0.2291,-0.2292,0,-0.233,-0.2329,-0.2329,-0.2325,-0.2326,-0.2326,-0.2326,-0.2377,-0.2379,-0.238,0,0,0,0,0,0,0,0,0,0,0,0,0,-0.2166,-0.2168,-0.2291,-0.2292,-0.2293,-0.233,-0.2329,-0.2329,-0.2325,-0.2326,-0.2326,-0.2326,-0.2377,-0.2379,-0.238,0,0,0,0,0,0,0,0,0,0,0,0,0,-0.2207,-0.2168,-0.2291,-0.2301,-0.2302,-0.233,-0.2329,-0.2329,-0.2325,-0.2326,-0.2326,-0.2326,-0.2376,-0.2378,-0.238,-0.2392,0,0,-0.2387,-0.2388,0,0,0,0,0,0,0,0,-0.2205,-0.2211,-0.2298,-0.23,-0.2302,-0.2329,-0.2305,-0.2353,-0.2325,-0.231,-0.2326,-0.2326,-0.2367,-0.237,-0.2367,-0.2395,-0.2397,-0.2387,-0.2388,-0.2389,-0.239,0,0,0,0,0,0,0,-0.2202,-0.2209,-0.2299,-0.2299,-0.2302,-0.2287,-0.2293,-0.2313,-0.2332,-0.2311,-0.2312,-0.2328,-0.2367,-0.2365,-0.2368,-0.2398,-0.2387,-0.2389,-0.239,-0.2391,-0.2391,-0.239,0,0,0,0,0,0,-0.2214,-0.2207,-0.2298,-0.2301,-0.226,-0.229,-0.2296,-0.2315,-0.2332,-0.2337,-0.2328,-0.2327,-0.2361,-0.2366,-0.237,-0.2352,-0.2389,-0.2391,-0.2392,-0.2392,-0.239,-0.2389,0,0,0,0,0,0,-0.2211,-0.2222,-0.2297,-0.226,-0.2269,-0.2293,-0.2313,-0.2316,-0.2324,-0.2346,-0.2349,-0.2336,-0.2362,-0.2367,-0.2394,-0.2355,-0.2392,-0.2394,-0.2393,-0.2391,-0.239,-0.2337,0,0,0,0,0,0,-0.2208,-0.2221,-0.2241,-0.2261,-0.2272,-0.231,-0.2314,-0.2316,-0.2336,-0.2336,-0.2354,-0.2358,-0.2362,-0.2391,-0.2396,-0.2359,-0.2395,-0.2395,-0.2393,-0.239,-0.234,-0.2333,-0.2328,0,0,0,0,0,-0.2203,-0.2233,-0.2241,-0.2253,-0.2298,-0.2311,-0.2314,-0.2326,-0.2336,-0.2334,-0.2353,-0.2358,-0.2378,-0.2393,-0.2399,-0.2361,-0.2396,-0.2393,-0.2391,-0.2343,-0.2335,-0.2328,0,0,0,0,0,0,-0.2196,-0.2237,-0.2246,-0.229,-0.2298,-0.2313,-0.2326,-0.2333,-0.2346,-0.2355,-0.2367,-0.2372,-0.2356,-0.2382,-0.2398,-0.2351,-0.2378,-0.2377,-0.234,-0.2332,-0.2326,-0.2305,-0.2397,0,0,0,0,0,-0.2204,-0.2222,-0.2258,-0.2281,-0.2299,-0.2312,-0.2324,-0.2331,-0.2347,-0.2352,-0.2362,-0.2367,-0.2347,-0.2365,-0.2349,-0.2364,-0.2377,-0.2334,-0.2328,-0.2323,-0.2308,-0.2302,-0.2294,-0.238,-0.238,-0.238,0,0,-0.2204,-0.2229,-0.2239,-0.2278,-0.2291,-0.2282,-0.2317,-0.2337,-0.2318,-0.2359,-0.2343,-0.2342,-0.234,-0.2319,-0.2317,-0.2347,-0.2309,-0.2319,-0.2315,-0.2303,-0.2298,-0.229,-0.2282,-0.2378,-0.2379,-0.2379,0,0,-0.2172,-0.224,-0.2224,-0.2241,-0.2269,-0.2279,-0.2287,-0.2308,-0.2314,-0.2311,-0.2307,-0.2294,-0.23,-0.2273,-0.2263,-0.2225,-0.2256,-0.2223,-0.2202,-0.2196,-0.2189,-0.2183,-0.2207,-0.2203,-0.2245,-0.2245,-0.2245,0,-0.2164,-0.2165,-0.2219,-0.2206,-0.2223,-0.2272,-0.2253,-0.2261,-0.2278,-0.2282,-0.2298,-0.226,-0.2258,-0.2215,-0.2189,-0.2204,-0.2232,-0.2232,-0.2188,-0.2182,-0.2177,-0.2203,-0.22,-0.2242,-0.2242,-0.2242,-0.2243,0,-0.2103,-0.2117,-0.212,-0.2111,-0.2129,-0.2141,-0.2168,-0.2181,-0.2202,-0.2199,-0.2177,-0.2178,-0.2162,-0.2143,-0.2156,-0.2109,-0.2151,-0.2162,-0.2208,-0.2165,-0.2196,-0.2193,-0.2238,-0.2239,-0.224,-0.224,0,0,-0.2045,-0.2069,-0.2067,-0.2069,-0.21,-0.2111,-0.2098,-0.2104,-0.2114,-0.2107,-0.2101,-0.204,-0.2066,-0.2056,-0.2069,-0.2066,-0.2047,-0.2109,-0.2111,-0.2136,-0.2071,-0.1933,-0.1918,-0.2069,-0.2068,-0.2067,-0.2115,0,-0.1975,-0.1945,-0.1971,-0.1946,-0.1951,-0.2012,-0.2003,-0.2019,-0.2045,-0.2058,-0.205,-0.2041,-0.2029,-0.2045,-0.2026,-0.2035,-0.2036,-0.2034,-0.2106,-0.2108,-0.1992,-0.1907,-0.1762,-0.1776,-0.2113,-0.2112,-0.2112,0,-0.1895,-0.1897,-0.1869,-0.1908,-0.1919,-0.1907,-0.1956,-0.1953,-0.1981,-0.2012,-0.2005,-0.2023,-0.1993,-0.201,-0.1988,-0.2001,-0.2023,-0.2035,-0.2038,-0.1919,-0.1962,-0.1869,-0.1759,-0.2108,-0.2109,-0.2109,-0.2109,0,-0.1837,-0.1831,-0.1819,-0.1832,-0.1869,-0.1877,-0.1894,-0.193,-0.1962,-0.1989,-0.2026,-0.1997,-0.2006,-0.1999,-0.1992,-0.2014,-0.1985,-0.2026,-0.1924,-0.1919,-0.1806,-0.1789,-0.2011,-0.2011,-0.2011,-0.2011,-0.201,0,-0.1778,-0.1769,-0.1799,-0.1804,-0.181,-0.1845,-0.1868,-0.1896,-0.195,-0.1964,-0.2001,-0.2005,-0.2006,-0.1994,-0.1993,-0.1917,-0.1982,-0.1883,-0.1894,-0.1783,-0.1764,-0.2062,-0.2067,-0.2012,-0.2012,-0.2012,-0.2011,0,-0.1722,-0.1738,-0.1735,-0.1772,-0.1786,-0.1793,-0.1863,-0.1888,-0.1946,-0.1972,-0.1986,-0.2017,-0.196,-0.1954,-0.194,-0.1905,-0.1866,-0.1839,-0.1709,-0.1698,-0.1824,-0.1826,-0.1736,-0.1731,-0.1727,-0.1723,-0.172,0,-0.1688,-0.1678,-0.1713,-0.172,-0.1738,-0.1767,-0.1797,-0.1871,-0.1899,-0.1951,-0.1952,-0.1934,-0.1848,-0.1769,-0.1697,-0.1639,-0.1746,-0.1513,-0.1481,-0.1761,-0.1783,-0.1792,-0.18,-0.1352,-0.1347,-0.1342,-0.1338,0,-0.1621,-0.1638,-0.1645,-0.1658,-0.1683,-0.1711,-0.1747,-0.1769,-0.1832,-0.1849,-0.1796,-0.1727,-0.1638,-0.1452,-0.1388,-0.1351,-0.1493,-0.141,-0.1729,-0.1412,-0.1393,-0.1417,-0.1439,-0.1296,-0.13,-0.1303,-0.1306,-0.1307,-0.1562,-0.1556,-0.1557,-0.1561,-0.1594,-0.1583,-0.1545,-0.1596,-0.158,-0.1541,-0.1581,-0.1437,-0.1392,-0.1152,-0.1088,-0.1063,-0.1175,-0.1162,-0.118,-0.1203,-0.1116,-0.1086,-0.092,-0.0922,-0.0923,-0.0925,-0.0926,0,-0.144,-0.144,-0.1452,-0.1429,-0.1402,-0.1459,-0.1454,-0.1369,-0.1269,-0.1317,-0.1241,-0.103,-0.0903,-0.0883,-0.0759,-0.0736,-0.078,-0.0723,-0.0792,-0.0831,-0.0866,-0.0768,-0.0477,-0.0476,-0.0475,-0.0474,0,0,-0.1367,-0.1317,-0.132,-0.1208,-0.1201,-0.1084,-0.1032,-0.0946,-0.0921,-0.0816,-0.0785,-0.0862,-0.0832,-0.0662,-0.0615,-0.0525,-0.0684,-0.0496,-0.0848,-0.0966,-0.1001,-0.1097,-0.0984,0,0,0,0,0]},{"header":{"parameterUnit":"m.s-1","parameterCategory":2,"la1":30.2991,"la2":30.254,"lo1":-89.0895,"lo2":-89.0444,"dy":0.0017,"dx":0.0017,"nx":28,"ny":28,"refTime":"2023-09-26T09:00:00:Z","depth":"2","parameterNumber":3,"parameterNumberName":"V-component_of_CURRENTS"},"data":[0,0,0,0,0,0,0,0,0,0,0,0,0,0,0,0,0,0,0,0,0,0,0,0,0,0,0,0,0,0,0,0,0,0,0,0,0,0,0,0,0,0,0,0,0,0,0,0,0,0,0,0,0,0,0,0,0,0,-0.0346,-0.0345,0,-0.0237,-0.0236,-0.0235,-0.0157,-0.0157,-0.0156,-0.0156,0.0034,0.0038,0.0043,0,0,0,0,0,0,0,0,0,0,0,0,0,-0.0421,-0.042,-0.0346,-0.0345,-0.0343,-0.0237,-0.0236,-0.0234,-0.0157,-0.0157,-0.0156,-0.0155,0.0032,0.0038,0.0043,0,0,0,0,0,0,0,0,0,0,0,0,0,-0.0357,-0.042,-0.0346,-0.0293,-0.0287,-0.0238,-0.0236,-0.0234,-0.0157,-0.0157,-0.0156,-0.0155,0.0031,0.0037,0.0044,0.007,0,0,0.0065,0.0068,0,0,0,0,0,0,0,0,-0.0361,-0.0354,-0.0302,-0.0296,-0.029,-0.0211,-0.0193,-0.0129,-0.0158,-0.0206,-0.0156,-0.0155,-0.0042,-0.0029,-0.001,0.0079,0.0087,0.0065,0.0069,0.0072,0.0074,0,0,0,0,0,0,0,-0.0365,-0.0358,-0.0302,-0.0301,-0.0293,-0.0252,-0.0242,-0.018,-0.0127,-0.0201,-0.0196,-0.0185,-0.0038,-0.0017,-0.0005,0.009,0.0065,0.0071,0.0075,0.0078,0.0252,0.0253,0,0,0,0,0,0,-0.0385,-0.0363,-0.0305,-0.0299,-0.0325,-0.0252,-0.0241,-0.0236,-0.0129,-0.0113,-0.0186,-0.0182,-0.0029,-0.0013,0.0002,0.006,0.0072,0.0079,0.0083,0.0252,0.0253,0.0253,0,0,0,0,0,0,-0.0387,-0.0381,-0.031,-0.0328,-0.0317,-0.0252,-0.0247,-0.0234,-0.021,-0.0119,-0.0101,-0.0175,-0.0028,-0.0007,0.0055,0.0068,0.0082,0.0088,0.0251,0.0252,0.0253,0.0164,0,0,0,0,0,0,-0.039,-0.0383,-0.0387,-0.033,-0.0316,-0.0285,-0.0247,-0.0233,-0.0206,-0.0199,-0.0103,-0.0085,-0.0026,0.0044,0.0061,0.0077,0.0093,0.0251,0.0252,0.0253,0.0166,0.0161,0.0157,0,0,0,0,0,-0.0393,-0.0399,-0.0388,-0.038,-0.0324,-0.0286,-0.0275,-0.0225,-0.0207,-0.02,-0.0136,-0.0088,0.0064,0.0049,0.007,0.0088,0.025,0.0251,0.0253,0.0168,0.0162,0.0157,0,0,0,0,0,0,-0.0434,-0.0391,-0.0376,-0.037,-0.0335,-0.0273,-0.0262,-0.0232,-0.0178,-0.0169,-0.0086,-0.0064,-0.0005,0.0053,0.0035,0.0143,0.0168,0.0173,0.0096,0.0092,0.0088,0.0073,0.0099,0,0,0,0,0,-0.0448,-0.0441,-0.0395,-0.0391,-0.0377,-0.0324,-0.0302,-0.027,-0.0216,-0.0192,-0.0126,-0.005,0.0016,0.006,0.0123,0.018,0.0216,0.0209,0.0204,0.02,0.0204,0.025,0.025,0.0257,0.0257,0.0257,0,0,-0.0466,-0.0439,-0.0438,-0.04,-0.0369,-0.0343,-0.0308,-0.0282,-0.0252,-0.0179,-0.0122,-0.0068,0.0025,0.0085,0.0119,0.0137,0.0215,0.0202,0.0197,0.0203,0.0251,0.025,0.0249,0.0258,0.0258,0.0258,0,0,-0.0484,-0.0475,-0.0467,-0.0443,-0.0401,-0.0365,-0.0362,-0.0304,-0.0273,-0.022,-0.016,-0.0106,0.0002,0.0064,0.0112,0.0125,0.0182,0.0153,0.0132,0.0176,0.0175,0.0175,0.0201,0.0204,0.0161,0.0161,0.0161,0,-0.0504,-0.0489,-0.0461,-0.0443,-0.0424,-0.0379,-0.0363,-0.0324,-0.0252,-0.0225,-0.0209,-0.0071,-0.0006,0.0075,0.0079,0.0115,0.0142,0.0138,0.0168,0.0168,0.017,0.0197,0.0201,0.0157,0.0157,0.0158,0.0158,0,-0.0504,-0.0497,-0.0494,-0.0455,-0.0433,-0.0418,-0.0365,-0.0337,-0.0298,-0.0252,-0.0183,-0.0107,-0.0022,0.0006,0.005,0.0101,0.0117,0.0143,0.0171,0.0163,0.0193,0.0199,0.0151,0.0152,0.0153,0.0154,0,0,-0.0529,-0.0499,-0.0497,-0.0491,-0.0442,-0.0425,-0.0385,-0.0332,-0.0304,-0.0242,-0.0197,-0.0104,-0.0074,-0.0019,0.0037,0.0078,0.0098,0.011,0.0115,0.0118,0.0182,0.0212,0.0222,0.0126,0.0127,0.0128,0.0191,0,-0.0533,-0.052,-0.0494,-0.0482,-0.0474,-0.0432,-0.0399,-0.0349,-0.0298,-0.0246,-0.0172,-0.0112,-0.0077,-0.0047,-0.0002,0.0082,0.0114,0.0078,0.0206,0.021,0.0223,0.023,0.0217,0.0275,0.0198,0.0199,0.02,0,-0.0528,-0.0525,-0.0521,-0.0503,-0.0495,-0.048,-0.0433,-0.0396,-0.0315,-0.0276,-0.0212,-0.0152,-0.0075,-0.0056,0.0068,0.0043,0.0102,0.0155,0.016,0.0227,0.0252,0.0278,0.029,0.021,0.0209,0.0209,0.0208,0,-0.0558,-0.0539,-0.0544,-0.0538,-0.0508,-0.05,-0.0477,-0.0411,-0.0381,-0.0302,-0.0276,-0.0173,-0.0121,-0.0033,0.0082,0.0074,0.021,0.0219,0.0296,0.0298,0.0335,0.0339,0.029,0.029,0.029,0.029,0.029,0,-0.057,-0.0576,-0.0566,-0.0575,-0.0583,-0.0543,-0.0531,-0.0492,-0.0427,-0.0384,-0.0305,-0.0246,-0.0114,-0.0015,0.0076,0.0213,0.021,0.0296,0.0324,0.0303,0.0303,0.0291,0.0291,0.0292,0.0292,0.0291,0.0291,0,-0.0608,-0.0595,-0.0613,-0.0604,-0.0605,-0.0615,-0.0589,-0.0573,-0.0509,-0.0451,-0.0431,-0.0297,-0.0158,-0.003,0.0132,0.0209,0.0332,0.0375,0.0333,0.0356,0.0384,0.0378,0.0463,0.0465,0.0466,0.0467,0.0468,0,-0.0624,-0.0638,-0.0659,-0.0683,-0.0689,-0.0694,-0.0695,-0.0629,-0.0601,-0.0468,-0.0441,-0.0297,-0.0163,0.0073,0.023,0.0393,0.0381,0.0458,0.0447,0.0387,0.0405,0.0397,0.0389,0.0451,0.0451,0.0452,0.0453,0,-0.067,-0.0682,-0.0707,-0.0761,-0.0782,-0.0789,-0.0777,-0.0755,-0.065,-0.0567,-0.0416,-0.0295,-0.0064,0.0145,0.0339,0.0424,0.0433,0.0477,0.0444,0.041,0.0381,0.0397,0.0389,0.0458,0.0458,0.0457,0.0457,0.0457,-0.071,-0.075,-0.0789,-0.0834,-0.086,-0.0862,-0.0837,-0.0784,-0.0696,-0.0527,-0.0414,-0.0212,-0.0023,0.027,0.0411,0.0514,0.0512,0.0533,0.0528,0.0523,0.0511,0.0488,0.0581,0.0581,0.0581,0.0581,0.0582,0,-0.0751,-0.0794,-0.0855,-0.0898,-0.0924,-0.0919,-0.0867,-0.0802,-0.0664,-0.0513,-0.0336,-0.0114,0.0107,0.0273,0.0464,0.0587,0.0556,0.0583,0.053,0.0524,0.0519,0.0504,0.0574,0.0574,0.0574,0.0574,0,0,-0.0776,-0.0843,-0.0874,-0.0929,-0.0953,-0.0927,-0.0872,-0.0744,-0.0611,-0.0419,-0.0265,-0.0103,0.0119,0.0247,0.0404,0.05,0.047,0.0491,0.0489,0.0404,0.0397,0.0486,0.0457,0,0,0,0,0]}],[{"header":{"parameterUnit":"m.s-1","parameterCategory":2,"la1":30.2991,"la2":30.254,"lo1":-89.0895,"lo2":-89.0444,"dy":0.0017,"dx":0.0017,"nx":28,"ny":28,"refTime":"2023-09-26T09:00:00:Z","depth":"4","parameterNumber":2,"parameterNumberName":"U-component_of_CURRENTS"},"data":[0,0,0,0,0,0,0,0,0,0,0,0,0,0,0,0,0,0,0,0,0,0,0,0,0,0,0,0,0,0,0,0,0,0,0,0,0,0,0,0,0,0,0,0,0,0,0,0,0,0,0,0,0,0,0,0,0,0,-0.1218,-0.1218,0,-0.1254,-0.1255,-0.1255,-0.1308,-0.1309,-0.1309,-0.131,-0.1388,-0.139,-0.1391,0,0,0,0,0,0,0,0,0,0,0,0,0,-0.121,-0.121,-0.1218,-0.1218,-0.1219,-0.1254,-0.1255,-0.1255,-0.1308,-0.1309,-0.131,-0.1311,-0.1388,-0.1389,-0.1391,0,0,0,0,0,0,0,0,0,0,0,0,0,-0.1227,-0.121,-0.1218,-0.1249,-0.1252,-0.1254,-0.1255,-0.1255,-0.1307,-0.1309,-0.131,-0.1311,-0.1387,-0.1389,-0.1391,-0.1377,0,0,-0.1397,-0.1398,0,0,0,0,0,0,0,0,-0.1226,-0.1228,-0.1244,-0.1247,-0.125,-0.1277,-0.1281,-0.1298,-0.1307,-0.1287,-0.131,-0.1312,-0.1354,-0.1358,-0.1363,-0.1381,-0.1384,-0.1397,-0.1398,-0.1399,-0.14,0,0,0,0,0,0,0,-0.1225,-0.1226,-0.1233,-0.1244,-0.1248,-0.1266,-0.127,-0.1284,-0.1314,-0.1289,-0.1293,-0.1295,-0.1356,-0.1361,-0.1365,-0.1386,-0.1397,-0.1399,-0.14,-0.1401,-0.1422,-0.1422,0,0,0,0,0,0,-0.1217,-0.1225,-0.1232,-0.1234,-0.124,-0.1265,-0.1269,-0.1268,-0.1313,-0.1321,-0.1294,-0.1297,-0.1357,-0.1363,-0.1368,-0.1391,-0.1399,-0.1401,-0.1402,-0.1423,-0.1422,-0.1421,0,0,0,0,0,0,-0.1216,-0.1217,-0.123,-0.123,-0.1233,-0.1264,-0.1262,-0.1268,-0.1298,-0.1316,-0.1325,-0.1321,-0.1358,-0.1365,-0.1394,-0.1393,-0.1402,-0.1404,-0.1423,-0.1423,-0.1422,-0.1413,0,0,0,0,0,0,-0.1216,-0.1216,-0.1224,-0.1229,-0.1233,-0.1245,-0.126,-0.1267,-0.1296,-0.1301,-0.1342,-0.1349,-0.136,-0.1391,-0.1396,-0.1396,-0.1405,-0.1424,-0.1423,-0.1422,-0.1414,-0.1412,-0.141,0,0,0,0,0,-0.1215,-0.122,-0.1224,-0.1226,-0.1239,-0.1245,-0.1249,-0.1275,-0.1296,-0.1308,-0.1333,-0.1349,-0.1387,-0.1392,-0.1398,-0.1399,-0.1425,-0.1423,-0.1422,-0.1415,-0.1412,-0.141,0,0,0,0,0,0,-0.1224,-0.1225,-0.1231,-0.1237,-0.1245,-0.1254,-0.1267,-0.1286,-0.1314,-0.1327,-0.1349,-0.1357,-0.1368,-0.1387,-0.1392,-0.1398,-0.1405,-0.1405,-0.1397,-0.1395,-0.1393,-0.1423,-0.1407,0,0,0,0,0,-0.1226,-0.1231,-0.1232,-0.124,-0.1241,-0.1257,-0.1269,-0.1286,-0.1305,-0.132,-0.1348,-0.1366,-0.1361,-0.1385,-0.1383,-0.1405,-0.1417,-0.1405,-0.1403,-0.1402,-0.1428,-0.1441,-0.1443,-0.1417,-0.1417,-0.1417,0,0,-0.1232,-0.1234,-0.1237,-0.1243,-0.1249,-0.1253,-0.1268,-0.1287,-0.1304,-0.1322,-0.1362,-0.1356,-0.136,-0.1366,-0.1376,-0.1393,-0.1406,-0.14,-0.1399,-0.1426,-0.144,-0.1443,-0.1445,-0.1416,-0.1416,-0.1417,0,0,-0.1235,-0.1243,-0.1244,-0.1248,-0.1259,-0.1267,-0.1277,-0.1296,-0.132,-0.134,-0.1345,-0.1352,-0.1368,-0.1372,-0.1371,-0.1363,-0.138,-0.1356,-0.1395,-0.1406,-0.1409,-0.1412,-0.1398,-0.14,-0.1375,-0.1375,-0.1375,0,-0.1246,-0.1246,-0.1248,-0.1246,-0.1259,-0.1274,-0.1284,-0.1298,-0.1332,-0.1357,-0.1354,-0.1366,-0.1367,-0.1377,-0.137,-0.1361,-0.1367,-0.1404,-0.1406,-0.1409,-0.1413,-0.1397,-0.14,-0.1374,-0.1375,-0.1375,-0.1375,0,-0.1232,-0.1249,-0.1249,-0.1253,-0.1266,-0.1279,-0.1291,-0.1321,-0.1345,-0.1362,-0.1381,-0.1373,-0.1393,-0.1374,-0.1373,-0.1392,-0.1385,-0.1385,-0.1417,-0.1415,-0.1398,-0.14,-0.1374,-0.1374,-0.1374,-0.1374,0,0,-0.1219,-0.124,-0.1243,-0.1261,-0.1278,-0.1287,-0.1316,-0.135,-0.1382,-0.1396,-0.1433,-0.1412,-0.1424,-0.1425,-0.1417,-0.1434,-0.1436,-0.1434,-0.1434,-0.1428,-0.1451,-0.1341,-0.1333,-0.1444,-0.1445,-0.1446,-0.1418,0,-0.1216,-0.123,-0.1242,-0.1271,-0.1282,-0.1313,-0.1342,-0.1377,-0.1402,-0.1438,-0.144,-0.145,-0.1437,-0.1442,-0.1457,-0.1441,-0.1449,-0.1443,-0.1448,-0.1448,-0.1358,-0.1334,-0.145,-0.142,-0.1421,-0.1421,-0.1422,0,-0.1194,-0.1214,-0.1245,-0.13,-0.1308,-0.1331,-0.1393,-0.1417,-0.1464,-0.1485,-0.1509,-0.1506,-0.1525,-0.1504,-0.1508,-0.151,-0.149,-0.1474,-0.1472,-0.1385,-0.1343,-0.143,-0.1426,-0.1426,-0.1426,-0.1425,-0.1425,0,-0.1182,-0.1219,-0.1257,-0.1269,-0.1322,-0.136,-0.139,-0.144,-0.1472,-0.1516,-0.1533,-0.1558,-0.1556,-0.1558,-0.1521,-0.1526,-0.1511,-0.1507,-0.1387,-0.1378,-0.1493,-0.1491,-0.1513,-0.1513,-0.1513,-0.1513,-0.1513,0,-0.1171,-0.1204,-0.1259,-0.1278,-0.1329,-0.1363,-0.1421,-0.1455,-0.1506,-0.1525,-0.1557,-0.1554,-0.1573,-0.1559,-0.1538,-0.1459,-0.1523,-0.1392,-0.1367,-0.1482,-0.148,-0.1493,-0.1491,-0.1512,-0.1512,-0.1512,-0.1512,0,-0.1156,-0.1194,-0.1238,-0.1303,-0.1327,-0.136,-0.1431,-0.1461,-0.1512,-0.1534,-0.1546,-0.1562,-0.1524,-0.152,-0.1498,-0.1451,-0.1404,-0.136,-0.1468,-0.145,-0.126,-0.1258,-0.1228,-0.1224,-0.1221,-0.1218,-0.1216,0,-0.115,-0.1172,-0.1245,-0.1268,-0.1303,-0.1358,-0.1394,-0.1459,-0.1474,-0.1511,-0.1501,-0.1491,-0.1482,-0.135,-0.1371,-0.1316,-0.1298,-0.1275,-0.1286,-0.1254,-0.1234,-0.1237,-0.1239,-0.121,-0.1209,-0.1209,-0.1208,0,-0.113,-0.1166,-0.1199,-0.1237,-0.1279,-0.1313,-0.1354,-0.1353,-0.1403,-0.1485,-0.14,-0.1357,-0.1303,-0.1259,-0.1218,-0.1187,-0.1298,-0.124,-0.1247,-0.1257,-0.1232,-0.1215,-0.1222,-0.1196,-0.1198,-0.1199,-0.1199,0,-0.1108,-0.1121,-0.1152,-0.1172,-0.1226,-0.1207,-0.1251,-0.1237,-0.1255,-0.1295,-0.1264,-0.1244,-0.1275,-0.1189,-0.1158,-0.1111,-0.1097,-0.1072,-0.1088,-0.1101,-0.1073,-0.1023,-0.09,0,0,0,0,0,-0.1057,-0.1044,-0.1072,-0.1069,-0.1121,-0.1125,-0.1188,-0.1228,-0.1285,-0.1193,-0.1218,-0.1155,-0.1079,-0.1076,-0.0997,-0.1106,-0.1109,-0.1013,-0.1092,-0.113,-0.1144,-0.1122,0,0,0,0,0,0,-0.1009,-0.1032,-0.103,-0.0968,-0.0943,-0.0963,-0.0986,-0.1032,-0.098,-0.1051,-0.1006,-0.1084,-0.102,-0.1086,-0.0965,-0.0969,-0.0996,-0.1029,-0.1026,-0.1122,-0.1135,-0.1146,-0.1128,0,0,0,0,0]},{"header":{"parameterUnit":"m.s-1","parameterCategory":2,"la1":30.2991,"la2":30.254,"lo1":-89.0895,"lo2":-89.0444,"dy":0.0017,"dx":0.0017,"nx":28,"ny":28,"refTime":"2023-09-26T09:00:00:Z","depth":"4","parameterNumber":3,"parameterNumberName":"V-component_of_CURRENTS"},"data":[0,0,0,0,0,0,0,0,0,0,0,0,0,0,0,0,0,0,0,0,0,0,0,0,0,0,0,0,0,0,0,0,0,0,0,0,0,0,0,0,0,0,0,0,0,0,0,0,0,0,0,0,0,0,0,0,0,0,-0.0292,-0.0292,0,-0.0264,-0.0264,-0.0264,-0.0237,-0.0237,-0.0237,-0.0237,-0.0206,-0.0205,-0.0204,0,0,0,0,0,0,0,0,0,0,0,0,0,-0.0296,-0.0296,-0.0292,-0.0292,-0.0292,-0.0264,-0.0264,-0.0263,-0.0237,-0.0237,-0.0237,-0.0236,-0.0206,-0.0205,-0.0204,0,0,0,0,0,0,0,0,0,0,0,0,0,-0.0283,-0.0296,-0.0292,-0.0276,-0.0274,-0.0264,-0.0264,-0.0263,-0.0237,-0.0237,-0.0237,-0.0236,-0.0206,-0.0205,-0.0204,-0.0207,0,0,-0.0202,-0.0201,0,0,0,0,0,0,0,0,-0.0284,-0.0283,-0.0279,-0.0277,-0.0275,-0.0254,-0.0254,-0.0244,-0.0238,-0.0251,-0.0237,-0.0236,-0.0222,-0.022,-0.0215,-0.0205,-0.0204,-0.0202,-0.0201,-0.0201,-0.02,0,0,0,0,0,0,0,-0.0285,-0.0284,-0.028,-0.0278,-0.0276,-0.0261,-0.0259,-0.0252,-0.0238,-0.0249,-0.0248,-0.0246,-0.0221,-0.0216,-0.0214,-0.0203,-0.0202,-0.0201,-0.02,-0.02,-0.0186,-0.0186,0,0,0,0,0,0,-0.0292,-0.0285,-0.0281,-0.028,-0.0279,-0.0261,-0.0259,-0.0261,-0.0239,-0.0235,-0.0246,-0.0245,-0.0217,-0.0215,-0.0213,-0.0192,-0.0201,-0.02,-0.0199,-0.0185,-0.0186,-0.0186,0,0,0,0,0,0,-0.0292,-0.0292,-0.0282,-0.0282,-0.028,-0.0262,-0.0264,-0.0261,-0.0258,-0.0236,-0.0232,-0.0247,-0.0217,-0.0214,-0.0213,-0.0192,-0.0199,-0.0199,-0.0185,-0.0185,-0.0186,-0.0166,0,0,0,0,0,0,-0.0292,-0.0292,-0.0299,-0.0283,-0.028,-0.0281,-0.0265,-0.026,-0.0257,-0.0255,-0.0236,-0.0232,-0.0216,-0.0214,-0.0212,-0.0191,-0.0198,-0.0185,-0.0185,-0.0186,-0.0166,-0.0165,-0.0165,0,0,0,0,0,-0.0292,-0.0302,-0.03,-0.03,-0.029,-0.0282,-0.0279,-0.0264,-0.0258,-0.026,-0.0249,-0.0233,-0.0214,-0.0214,-0.0211,-0.0189,-0.0185,-0.0185,-0.0186,-0.0167,-0.0166,-0.0165,0,0,0,0,0,0,-0.0309,-0.0299,-0.0297,-0.0304,-0.0297,-0.0278,-0.0279,-0.027,-0.0262,-0.0262,-0.0241,-0.0237,-0.0225,-0.0221,-0.0221,-0.0188,-0.0194,-0.0194,-0.0181,-0.018,-0.0179,-0.0156,-0.0197,0,0,0,0,0,-0.0318,-0.0322,-0.0309,-0.0318,-0.0314,-0.0299,-0.0295,-0.0286,-0.0276,-0.0272,-0.0259,-0.0244,-0.0224,-0.0215,-0.0204,-0.0192,-0.0165,-0.0176,-0.0175,-0.0174,-0.0156,-0.0093,-0.0084,-0.0187,-0.0187,-0.0187,0,0,-0.033,-0.0323,-0.0329,-0.0322,-0.0314,-0.0304,-0.0296,-0.0293,-0.0278,-0.0271,-0.0255,-0.0246,-0.0223,-0.0203,-0.0197,-0.0196,-0.0138,-0.0175,-0.0174,-0.0155,-0.0092,-0.0082,-0.0072,-0.0187,-0.0187,-0.0187,0,0,-0.0343,-0.0348,-0.0349,-0.0343,-0.0333,-0.0318,-0.032,-0.0305,-0.0292,-0.0284,-0.0264,-0.0239,-0.0231,-0.019,-0.0172,-0.0162,-0.0139,-0.0172,-0.014,-0.008,-0.007,-0.0061,-0.0036,-0.0025,-0.0166,-0.0166,-0.0166,0,-0.0356,-0.0354,-0.035,-0.0343,-0.0336,-0.0325,-0.0317,-0.03,-0.0287,-0.0268,-0.028,-0.0226,-0.0211,-0.0149,-0.0144,-0.0153,-0.0136,-0.0143,-0.0075,-0.0066,-0.0056,-0.0033,-0.002,-0.0166,-0.0166,-0.0166,-0.0166,0,-0.0358,-0.0361,-0.0362,-0.0345,-0.0337,-0.0335,-0.0309,-0.0298,-0.0286,-0.0261,-0.0218,-0.0193,-0.0155,-0.0146,-0.014,-0.0068,-0.0084,-0.0083,-0.0071,-0.0044,-0.0023,-0.001,-0.0164,-0.0165,-0.0165,-0.0165,0,0,-0.0372,-0.0364,-0.0364,-0.0361,-0.0339,-0.0334,-0.0303,-0.0265,-0.0239,-0.0215,-0.017,-0.0121,-0.0106,-0.0084,-0.0067,-0.0011,0.006,-0.0023,-0.002,0.0014,0.0166,0.012,0.0129,0.0071,0.0073,0.0075,0.0147,0,-0.0373,-0.0369,-0.0355,-0.0349,-0.0345,-0.0321,-0.0294,-0.0259,-0.0227,-0.0186,-0.0126,-0.0091,-0.0082,-0.0069,-0.0004,0.0038,0.0097,0.0039,0.0125,0.0128,0.0095,0.0145,0.0084,0.0157,0.016,0.0162,0.0163,0,-0.037,-0.037,-0.0368,-0.0352,-0.0346,-0.0339,-0.0293,-0.0267,-0.0196,-0.0169,-0.0105,-0.0073,0.0014,0.0008,0.0134,0.009,0.0137,0.0174,0.0178,0.0145,0.0107,0.0129,0.0186,0.0185,0.0183,0.0181,0.018,0,-0.0384,-0.0373,-0.0375,-0.0373,-0.0353,-0.0344,-0.0326,-0.0267,-0.0241,-0.0162,-0.0137,-0.0032,0.0005,0.0099,0.0162,0.0154,0.0287,0.0285,0.0296,0.0291,0.0302,0.0292,0.0398,0.0398,0.0398,0.0398,0.0397,0,-0.0386,-0.0391,-0.039,-0.0399,-0.0401,-0.0371,-0.0355,-0.0319,-0.0256,-0.0221,-0.014,-0.0092,0.003,0.0109,0.0179,0.0265,0.0304,0.0322,0.0323,0.0301,0.0291,0.031,0.0298,0.04,0.04,0.0399,0.0399,0,-0.0408,-0.0404,-0.0419,-0.0414,-0.0417,-0.0424,-0.0402,-0.0384,-0.0319,-0.027,-0.0248,-0.0127,-0.0024,0.0081,0.0224,0.0269,0.0363,0.0384,0.0333,0.0326,0.0324,0.0313,0.0425,0.0424,0.0424,0.0423,0.0423,0,-0.0418,-0.0431,-0.0456,-0.0479,-0.0488,-0.0492,-0.0495,-0.0433,-0.0406,-0.0296,-0.0273,-0.0158,-0.0078,0.0092,0.0202,0.0341,0.0355,0.0395,0.0397,0.0345,0.0335,0.0325,0.0314,0.0422,0.0422,0.0422,0.0421,0,-0.045,-0.0468,-0.0488,-0.0543,-0.0566,-0.0572,-0.0565,-0.0545,-0.046,-0.0401,-0.0282,-0.0171,-0.0056,0.0085,0.0181,0.0282,0.0369,0.039,0.0392,0.0394,0.0342,0.0331,0.0322,0.0419,0.042,0.042,0.042,0,-0.0485,-0.0516,-0.0557,-0.0596,-0.0633,-0.0642,-0.0627,-0.0574,-0.0525,-0.0385,-0.0351,-0.0198,-0.0093,0.0054,0.0146,0.0235,0.0268,0.0294,0.0302,0.0306,0.0244,0.0158,0.0202,0,0,0,0,0,-0.051,-0.055,-0.0604,-0.0645,-0.0682,-0.0689,-0.0667,-0.0633,-0.0547,-0.0472,-0.0399,-0.0285,-0.0103,-0.0013,0.0071,0.0116,0.0258,0.0214,0.0285,0.0409,0.0411,0.0354,0,0,0,0,0,0,-0.0531,-0.0589,-0.0613,-0.0675,-0.0704,-0.0729,-0.0711,-0.0653,-0.0589,-0.049,-0.039,-0.0285,-0.0114,-0.0159,0.0065,0.0097,0.0148,0.0316,0.0318,0.0407,0.0409,0.0411,0.0353,0,0,0,0,0]}]]